Location: Nelson
(38.9945°N, 93.0321°W)
Time: 17:48:07
(UTC+00:00)

ACS3 Solar Sail - Pass Details

Date: 28 June 2024
Orbit: 993 x 1023 km, 97.4° (Epoch: 21 July)

Event Time Altitude Azimuth Distance (km) Brightness Sun altitude
Exits shadow 03:40:18 25° 167° (SSE) 1,876 5.8 -17.9°
Maximum altitude 03:44:08 90° 75° (ENE) 1,000 4.8 -18.4°
Drops below altitude 10° 03:50:23 10° 348° (NNW) 2,764 8.2 -19.1°
Sets 03:52:52 0° 349° (N) 3,717 9.0 -19.4°
